Wind_Speed
2 2 4 5 5 5 7 2 4 7 6 4 13 16 13 8 5 5 5 9 13 17 21 24 27 31 36 40 44 50 56 59 60 60 61 60 58 53 49 49 47 38 37 37
5 5 6 4 4 6 5 0 5 7 7 5 13 13 10 7 8 7 9 12 15 17 20 25 31 36 41 47 52 57 60 61 60 60 59 55 52 50 50 52 53 46 39 39
4 8 4 2 3 3 2 5 3 3 6 9 10 9 9 8 9 9 12 15 17 23 27 30 35 39 46 53 57 61 62 62 59 56 52 46 46 49 51 51 50 47 47 44
3 6 2 1 0 2 3 6 4 5 7 5 11 3 12 12 13 13 15 17 21 24 29 35 42 47 52 56 58 60 60 57 54 51 48 47 51 51 47 46 46 47 48 49
4 6 4 4 3 4 2 8 7 8 11 7 9 5 8 15 17 17 18 20 23 28 33 37 43 50 55 57 60 57 52 46 45 45 46 46 45 45 44 45 46 46 45 45
5 6 4 3 4 5 6 8 7 3 8 6 8 7 8 14 17 18 18 21 26 31 36 42 48 53 56 58 55 54 49 40 38 40 43 41 43 42 45 48 47 45 46 46
2 4 4 4 5 5 5 7 1 2 3 3 5 6 11 14 16 17 20 24 30 36 42 46 52 57 58 57 57 53 45 40 38 38 42 40 39 42 48 48 46 46 46 43
3 3 2 2 3 5 8 3 1 3 2 3 4 5 7 14 17 19 22 28 33 40 44 49 54 55 54 55 53 46 35 34 34 35 38 36 39 44 47 46 46 46 43 40
1 1 2 4 6 5 4 2 2 2 4 3 4 6 12 16 18 20 24 30 35 40 46 49 50 50 52 51 47 38 31 32 32 34 34 36 41 45 45 45 45 42 39 36
2 2 2 4 6 4 3 4 2 2 2 4 4 7 10 11 15 20 24 28 37 41 45 46 46 48 48 46 40 31 30 34 36 32 34 40 44 43 43 43 42 39 36 34
8 4 3 5 3 5 5 5 3 4 4 3 4 3 7 9 13 19 24 33 38 42 43 42 43 42 41 41 34 32 34 33 33 34 38 41 43 43 42 42 39 37 35 34
9 5 5 7 9 8 8 9 9 5 4 7 4 9 10 9 18 26 31 35 38 40 39 39 37 34 33 32 32 32 33 34 37 41 41 42 42 41 41 38 36 34 33 31
7 3 4 4 5 5 6 8 11 12 13 13 5 6 10 19 25 27 30 33 37 37 36 33 29 28 27 33 35 35 36 38 39 41 41 41 40 39 37 34 32 30 29 30
10 9 10 9 11 14 14 16 16 16 12 14 21 23 26 24 24 24 29 33 33 32 31 27 27 25 29 33 34 36 36 36 37 38 39 38 37 36 33 31 29 29 29 30
12 13 13 12 14 18 18 19 22 26 26 18 19 19 19 22 19 25 30 30 29 27 27 26 26 28 31 34 35 35 35 36 36 36 35 35 32 30 30 30 28 28 28 29
14 12 12 15 18 20 22 21 24 27 28 30 25 22 16 16 21 26 29 28 26 26 27 25 26 29 32 34 33 34 36 36 35 34 32 29 28 29 30 28 28 28 27 27
13 12 12 8 13 18 20 9 10 13 15 14 15 12 12 17 22 26 26 26 25 25 25 25 27 30 33 32 33 34 34 34 32 30 27 27 29 29 29 28 27 25 27 28
15 15 13 10 14 3 4 6 15 16 13 11 10 11 12 17 25 26 25 24 24 24 24 24 26 29 30 30 32 33 31 29 26 26 27 27 27 27 27 26 27 27 26 26
18 17 9 6 7 16 20 15 11 11 13 11 10 10 14 22 27 26 25 24 23 23 23 23 26 29 29 30 30 29 26 23 26 27 25 26 26 26 26 25 26 28 29 30
22 21 17 10 5 4 5 11 13 13 11 1 4 12 22 23 25 24 23 22 22 21 21 22 25 26 26 28 25 23 20 22 25 25 25 25 25 25 26 27 28 30 31 31
16 16 18 19 11 10 16 15 10 4 6 13 15 21 22 26 23 23 21 19 19 19 20 21 23 22 24 24 19 19 21 22 23 24 25 25 26 27 28 29 29 29 29 28
13 8 10 11 10 10 8 8 9 11 19 20 22 24 27 27 25 23 22 19 18 19 19 21 20 21 23 19 15 19 19 20 21 21 22 24 25 26 27 27 27 27 25 24
15 17 11 12 7 13 15 20 20 22 23 24 26 26 27 26 25 23 22 19 18 18 18 19 18 20 20 15 15 17 18 19 18 20 22 23 24 24 24 24 25 24 22 20
18 16 20 23 22 21 19 22 24 25 25 25 25 25 26 24 24 23 20 18 16 17 17 16 17 19 17 12 15 16 17 17 16 19 20 21 21 22 23 23 22 22 20 19
15 17 25 27 25 23 22 22 22 22 23 24 24 25 23 23 23 21 18 16 15 14 14 15 17 17 11 10 12 13 14 15 15 18 20 20 21 22 23 24 24 25 24 24
23 23 27 30 26 24 25 23 21 21 22 22 22 22 22 22 21 18 15 13 12 12 13 15 16 11 7 9 9 11 13 13 15 19 18 20 24 25 25 25 26 27 28 28
Wind_Direction
121 159 103 75 51 33 1 352 86 75 78 95 124 135 141 148 211 236 282 299 325 326 332 332 328 327 327 324 323 326 328 328 327 324 322 323 326 328 326 323 325 319 312 310
166 125 114 75 19 350 352 106 123 92 81 178 142 136 143 173 241 268 296 307 306 310 316 321 324 324 319 322 326 328 327 325 323 324 326 329 327 325 322 321 322 320 314 313
169 145 121 45 333 315 123 42 118 219 164 143 155 149 178 214 247 273 286 302 316 317 317 315 316 318 321 324 324 325 324 324 325 325 326 323 317 316 315 316 317 319 320 319
163 174 185 302 174 354 198 2 321 255 188 188 220 200 216 236 252 267 280 292 303 310 312 316 322 326 327 329 328 324 323 323 322 321 320 316 317 319 320 323 325 324 324 324
184 182 207 250 279 336 312 337 320 255 229 235 227 224 214 233 253 265 279 296 312 320 324 328 326 325 329 326 324 325 324 320 317 318 318 325 328 329 332 331 328 327 326 325
224 221 233 250 293 314 321 329 323 212 206 231 215 219 206 229 255 270 290 304 312 315 319 320 322 326 324 325 328 329 327 325 320 318 324 331 330 331 331 330 329 329 328 326
226 224 237 265 297 303 322 322 267 207 209 255 225 268 251 244 259 278 292 303 309 314 316 319 324 326 329 332 334 331 330 333 326 330 329 331 327 332 330 332 332 331 332 332
206 205 232 263 287 300 316 360 348 284 253 299 257 248 258 255 266 278 292 303 309 316 323 326 328 331 334 337 335 332 325 332 333 336 336 332 333 332 333 333 335 336 335 334
331 209 255 275 282 293 302 327 321 272 287 297 234 260 269 262 265 277 289 300 311 322 326 330 333 336 340 343 342 341 344 332 334 336 337 338 334 334 334 338 338 337 336 333
335 317 288 283 290 286 262 278 299 270 267 268 246 257 245 262 270 282 293 308 322 329 332 335 339 344 350 354 356 357 345 345 341 334 332 334 336 336 340 340 339 340 339 336
321 304 267 293 262 259 269 263 242 236 237 259 301 237 266 268 280 297 311 326 331 333 336 341 346 350 352 353 357 351 343 343 343 342 337 339 339 342 342 343 343 344 345 341
306 290 286 275 274 274 261 256 252 226 232 225 265 278 284 289 309 320 328 330 333 335 340 345 347 348 351 360 360 353 349 345 343 341 341 341 343 342 344 346 347 350 351 354
297 268 288 279 288 279 263 268 263 258 259 242 230 267 293 312 317 323 326 329 332 337 342 344 345 351 354 355 350 344 340 341 343 343 343 343 344 346 350 353 359 0 2 7
281 267 255 252 272 280 278 283 276 264 253 264 252 275 292 298 313 315 324 330 333 338 339 344 353 356 350 343 344 344 342 346 347 345 344 346 348 354 359 4 8 10 10 9
270 272 276 277 277 279 280 282 277 268 270 259 285 288 292 302 310 321 327 331 334 335 339 345 352 348 347 344 343 346 348 346 345 346 349 352 357 1 7 6 5 9 9 10
265 266 278 284 288 288 289 289 277 272 273 272 279 285 297 301 318 326 328 329 332 335 338 339 340 345 346 345 348 350 348 345 347 352 357 1 3 1 359 360 3 5 8 12
253 267 285 275 286 295 297 281 270 283 289 284 273 288 291 310 319 325 328 327 331 330 335 337 341 345 346 345 349 348 350 350 353 360 2 1 359 360 359 0 7 12 14 17
260 270 277 278 297 263 257 270 292 294 293 288 278 280 297 315 324 325 327 327 327 329 334 338 341 344 344 345 351 349 355 357 1 1 357 358 360 2 4 9 11 17 24 26
254 255 262 268 258 281 284 276 284 297 304 289 275 280 311 322 327 327 327 326 325 328 331 337 341 344 343 347 353 354 2 1 360 352 358 2 5 9 12 17 22 22 20 19
243 249 247 254 266 258 245 290 303 308 308 6 243 302 319 322 324 323 324 322 321 323 331 335 341 342 344 347 357 2 5 359 355 353 2 9 13 16 20 23 23 23 21 21
234 240 238 247 254 270 281 290 298 298 311 321 308 319 322 325 322 323 323 319 317 324 330 334 339 342 344 349 4 9 1 358 358 1 9 15 17 21 23 23 21 21 21 22
252 245 229 225 232 269 272 283 285 296 308 316 316 317 321 323 323 326 323 319 320 326 328 332 338 340 343 349 359 2 0 359 2 6 18 21 22 22 22 23 22 22 22 24
239 244 253 241 251 274 285 298 299 303 305 306 308 312 317 318 321 323 321 321 323 322 326 331 334 336 340 345 354 2 4 3 9 15 24 23 24 25 24 23 22 22 22 22
252 261 261 272 279 276 286 294 297 298 299 300 300 307 313 315 320 319 318 319 319 320 324 328 329 334 338 345 354 5 8 5 14 25 29 29 29 28 27 26 27 27 25 26
263 279 279 279 284 289 289 292 289 289 289 290 295 302 305 310 315 317 318 318 317 319 321 323 327 334 341 351 354 10 14 8 19 31 31 29 32 32 30 27 27 27 27 27
279 281 276 281 288 292 291 289 287 285 284 287 290 296 301 308 314 315 313 312 311 317 316 319 324 332 350 356 357 24 20 14 23 33 31 33 33 30 27 28 28 26 26 26
Height
3182 3184 3183 3183 3183 3184 3183 3181 3181 3181 3181 3181 3179 3179 3182 3183 3182 3179 3177 3175 3174 3170 3167 3165 3161 3157 3153 3149 3144 3137 3129 3122 3115 3109 3101 3095 3088 3082 3076 3071 3067 3061 3055 3048
3182 3182 3183 3183 3183 3183 3183 3180 3180 3181 3181 3183 3183 3182 3183 3182 3180 3178 3176 3174 3172 3170 3167 3163 3159 3154 3149 3143 3136 3129 3122 3114 3108 3101 3094 3088 3081 3074 3067 3059 3053 3049 3045 3038
3180 3182 3182 3183 3183 3182 3182 3181 3180 3181 3181 3183 3183 3184 3183 3181 3179 3177 3175 3173 3170 3166 3162 3159 3156 3150 3144 3137 3130 3122 3114 3106 3098 3091 3085 3080 3074 3067 3059 3052 3044 3037 3031 3025
3181 3181 3182 3182 3182 3182 3181 3181 3179 3178 3179 3181 3181 3183 3181 3178 3177 3175 3174 3171 3168 3164 3161 3156 3150 3144 3138 3131 3124 3115 3106 3098 3089 3083 3076 3069 3062 3054 3047 3040 3033 3026 3019 3011
3181 3180 3181 3181 3181 3181 3181 3180 3179 3176 3177 3179 3178 3180 3176 3175 3173 3173 3171 3169 3165 3161 3156 3151 3145 3140 3132 3124 3117 3106 3097 3089 3082 3075 3069 3062 3054 3048 3040 3034 3027 3020 3012 3004
3179 3179 3180 3180 3179 3179 3179 3178 3176 3176 3176 3177 3174 3176 3174 3171 3170 3169 3168 3165 3161 3156 3152 3148 3142 3135 3128 3118 3109 3098 3089 3081 3075 3068 3061 3055 3049 3042 3035 3027 3019 3011 3005 2997
3178 3178 3178 3178 3178 3178 3177 3177 3176 3176 3175 3173 3172 3173 3168 3166 3166 3165 3164 3161 3157 3153 3148 3143 3136 3128 3119 3109 3099 3090 3082 3076 3068 3063 3057 3050 3044 3037 3030 3021 3012 3005 2997 2989
3176 3178 3177 3176 3177 3176 3175 3176 3176 3173 3173 3172 3171 3169 3166 3164 3163 3162 3160 3157 3154 3149 3144 3138 3131 3122 3113 3104 3094 3084 3078 3072 3066 3060 3053 3046 3040 3033 3024 3016 3007 2999 2990 2983
3175 3175 3175 3175 3175 3177 3175 3175 3176 3174 3174 3173 3168 3167 3164 3161 3161 3160 3158 3155 3151 3146 3141 3134 3125 3117 3107 3098 3088 3080 3076 3071 3064 3057 3051 3045 3038 3029 3020 3012 3003 2995 2987 2979
3173 3173 3173 3173 3173 3174 3174 3175 3175 3174 3173 3170 3164 3163 3160 3159 3159 3158 3156 3152 3148 3143 3135 3128 3119 3110 3102 3094 3087 3081 3077 3069 3064 3057 3050 3042 3034 3026 3017 3008 3000 2992 2984 2975
3172 3173 3175 3173 3172 3172 3172 3172 3173 3174 3173 3169 3165 3161 3158 3158 3157 3156 3152 3147 3142 3136 3129 3121 3113 3107 3100 3094 3088 3081 3075 3069 3063 3055 3046 3038 3030 3022 3013 3004 2996 2988 2980 2973
3171 3171 3170 3171 3170 3169 3170 3170 3170 3171 3170 3168 3167 3159 3156 3155 3154 3151 3146 3142 3137 3131 3124 3116 3110 3106 3102 3094 3085 3078 3073 3066 3059 3051 3043 3035 3027 3019 3010 3002 2994 2987 2980 2973
3169 3169 3169 3168 3170 3167 3167 3167 3167 3166 3165 3163 3165 3157 3153 3151 3149 3146 3143 3139 3133 3127 3120 3116 3111 3104 3097 3090 3085 3077 3071 3063 3056 3049 3041 3033 3024 3015 3007 3000 2993 2987 2981 2974
3167 3166 3166 3166 3165 3164 3164 3164 3163 3162 3160 3157 3153 3153 3152 3148 3147 3145 3141 3136 3130 3125 3120 3114 3106 3100 3095 3090 3083 3075 3068 3060 3053 3046 3039 3030 3022 3013 3006 3000 2995 2989 2982 2975
3164 3162 3162 3161 3160 3159 3159 3158 3156 3154 3153 3152 3148 3148 3147 3146 3144 3140 3136 3131 3125 3121 3117 3111 3104 3098 3093 3087 3080 3073 3064 3057 3050 3043 3036 3029 3021 3014 3008 3002 2996 2990 2984 2976
3159 3158 3156 3157 3155 3153 3151 3151 3149 3147 3146 3143 3144 3143 3143 3140 3138 3135 3131 3126 3120 3117 3113 3109 3103 3096 3090 3084 3077 3070 3062 3056 3049 3042 3035 3029 3023 3016 3010 3004 2997 2990 2984 2979
3157 3155 3154 3151 3151 3148 3146 3142 3142 3141 3140 3140 3139 3140 3139 3137 3134 3130 3126 3122 3117 3113 3108 3104 3098 3092 3086 3080 3074 3068 3060 3054 3048 3042 3036 3030 3023 3017 3011 3004 2998 2992 2985 2979
3152 3153 3152 3149 3149 3147 3141 3139 3139 3138 3138 3136 3136 3136 3136 3134 3130 3127 3122 3117 3114 3109 3105 3101 3095 3090 3084 3079 3071 3065 3058 3053 3048 3042 3036 3030 3024 3018 3012 3005 2999 2992 2988 2984
3148 3148 3149 3149 3145 3141 3138 3135 3136 3135 3134 3132 3132 3133 3132 3128 3124 3122 3117 3113 3110 3105 3101 3097 3093 3088 3083 3076 3068 3063 3057 3054 3049 3045 3037 3031 3025 3019 3013 3007 3001 2995 2988 2983
3143 3144 3146 3145 3145 3140 3135 3134 3132 3132 3129 3129 3130 3129 3127 3123 3119 3116 3112 3108 3105 3103 3099 3094 3090 3086 3082 3075 3068 3062 3058 3055 3050 3045 3038 3031 3026 3020 3014 3008 3002 2996 2991 2985
3140 3139 3139 3140 3140 3134 3131 3130 3129 3131 3133 3128 3127 3125 3123 3120 3116 3112 3109 3106 3103 3098 3096 3092 3088 3084 3079 3073 3067 3062 3058 3056 3050 3045 3038 3033 3027 3021 3015 3010 3005 2999 2994 2989
3136 3135 3134 3136 3136 3130 3127 3128 3130 3128 3124 3123 3120 3119 3118 3116 3110 3106 3102 3101 3099 3094 3091 3088 3085 3082 3076 3071 3067 3062 3059 3055 3050 3045 3038 3033 3028 3023 3018 3013 3008 3003 2999 2994
3131 3130 3131 3132 3128 3125 3125 3125 3124 3122 3120 3117 3115 3113 3112 3109 3106 3102 3098 3095 3094 3092 3087 3084 3082 3079 3074 3070 3067 3062 3058 3055 3051 3047 3040 3036 3031 3026 3022 3017 3012 3007 3003 2998
3124 3126 3125 3124 3123 3121 3121 3119 3118 3116 3114 3112 3110 3107 3107 3105 3102 3097 3094 3091 3089 3088 3085 3082 3080 3077 3073 3069 3067 3062 3059 3057 3053 3047 3043 3038 3033 3029 3024 3020 3015 3010 3006 3001
3122 3121 3119 3116 3116 3116 3115 3113 3112 3110 3108 3107 3104 3102 3101 3100 3097 3093 3090 3087 3085 3083 3082 3081 3077 3074 3071 3069 3067 3063 3060 3058 3054 3049 3044 3041 3036 3031 3026 3022 3017 3012 3007 3002
3115 3115 3113 3110 3110 3109 3108 3106 3104 3102 3100 3100 3099 3097 3095 3092 3090 3087 3086 3084 3082 3080 3080 3078 3075 3072 3071 3069 3067 3063 3061 3059 3056 3050 3047 3042 3037 3032 3028 3024 3019 3014 3008 3003